Location: Armstrong
(40.9123°N, 82.0110°W)
Time: 08:56:10
(UTC+00:00)

Cosmos 1812 Rocket - Pass Details

Date: 29 October 2020
Orbit: 605 x 632 km, 82.5° (Epoch: 29 November)

Event Time Altitude Azimuth Distance (km) Brightness Sun altitude
Rises 23:47:36 0° 175° (S) 2,890 7.0 -15.7°
Reaches altitude 10° 23:49:52 10° 170° (S) 1,984 6.1 -16.2°
Maximum altitude 23:54:08 54° 94° (E) 757 3.6 -17.0°
Drops below altitude 10° 23:58:25 10° 17° (NNE) 1,982 5.9 -17.8°
Sets 00:00:40 0° 13° (NNE) 2,887 6.8 -18.2°
